Japanese version Home page |
Updated on December 30, 2007 |
|
Orbital ElementsEpoch 2007 Aug. 8.0 TT = JDT 2454320.5 T 2007 Aug. 23.87738 TT MPC q 1.8390170 (2000.0) P Q n 0.07449956 Peri. 163.14832 +0.90984005 +0.41426614 a 5.5937139 Node 172.24912 -0.39826734 +0.88800310 e 0.6712351 Incl. 10.23841 -0.11650839 +0.19958473 P 13.23
|
Magnitudes Graphm1 = 16.5 + 5 log d + 10.0 log r
|
The orbital elements are published on M.P.E.C. 2007-U58.
|